This is the latest recevied weather packets stored in our database for station/object KQ4UPF. If no packets are shown the sender has not sent any weather packets the latest 10 day(s).
| Time | Temp. | Humidity | Pressure | Rain* | Wind** | Luminosity | Snow |
|---|---|---|---|---|---|---|---|
| 1777162977 | 19.44° C | 92% | 1010.3 hPa | 0 mm | - | 1 W/m² | - |
| 1777162671 | 19.44° C | 91% | 1009.9 hPa | 0 mm | - | 4 W/m² | - |
| 1777162366 | 19.44° C | 91% | 1010 hPa | 0 mm | - | 8 W/m² | - |
| 1777162066 | 19.44° C | 90% | 1010.1 hPa | 0 mm | - | 11 W/m² | - |
| 1777161761 | 20° C | 89% | 1009.9 hPa | 1.78 mm | - | 15 W/m² | - |
| 1777161459 | 20° C | 87% | 1010.4 hPa | 1.78 mm | - | 14 W/m² | - |
| 1777161154 | 20° C | 85% | 1010 hPa | 0 mm | - | 13 W/m² | - |
| 1777160851 | 20.56° C | 83% | 1009.9 hPa | 0 mm | - | 11 W/m² | - |
| 1777160546 | 20.56° C | 81% | 1009.6 hPa | 0 mm | - | 5 W/m² | - |
| 1777160243 | 21.11° C | 78% | 1009.7 hPa | 0 mm | - | 3 W/m² | - |
| 1777159939 | 21.11° C | 77% | 1009.5 hPa | 0 mm | - | 6 W/m² | - |
| 1777159635 | 21.67° C | 76% | 1009.8 hPa | 0 mm | - | 14 W/m² | - |
| 1777159331 | 21.67° C | 74% | 1009.5 hPa | 0 mm | - | 23 W/m² | - |
| 1777159027 | 22.22° C | 74% | 1009.6 hPa | 0 mm | - | 57 W/m² | - |
| 1777158722 | 22.22° C | 75% | 1009.6 hPa | 0 mm | - | 101 W/m² | - |
| 1777158418 | 22.22° C | 73% | 1009.5 hPa | 0 mm | - | 128 W/m² | - |
| 1777158113 | 22.22° C | 72% | 1009.3 hPa | 0 mm | - | 131 W/m² | - |
| 1777157809 | 21.67° C | 74% | 1009.5 hPa | 0 mm | - | 203 W/m² | - |
| 1777157505 | 21.67° C | 75% | 1009.5 hPa | 0 mm | - | 137 W/m² | - |
| 1777157202 | 22.22° C | 74% | 1009.4 hPa | 0 mm | - | 42 W/m² | - |
| 1777156901 | 22.78° C | 72% | 1009 hPa | 0 mm | - | 35 W/m² | - |
| 1777156596 | 22.78° C | 70% | 1009 hPa | 0 mm | - | 59 W/m² | - |
| 1777156293 | 23.33° C | 66% | 1009 hPa | 0 mm | - | 95 W/m² | - |
| 1777155990 | 23.33° C | 67% | 1009 hPa | 0 mm | - | 114 W/m² | - |
| 1777155686 | 23.89° C | 68% | 1008.6 hPa | 0 mm | - | 34 W/m² | - |
* Rain latest hour (hover to see other rain measurements)
** Current wind speed in m/s (hover to see current wind gust speed)